Location: Bernadets
(43.3537°N, 0.3167°E)
Time: 02:37:45
(UTC+00:00)

H-2A R/B - Pass Details

Date: 24 October 2021
Orbit: 527 x 651 km, 98.3° (Epoch: 27 November)

Event Time Altitude Azimuth Distance (km) Brightness Sun altitude
Rises 18:17:24 0° 154° (SSE) 2,892 5.8 -14.5°
Reaches altitude 10° 18:19:39 10° 151° (SSE) 1,972 4.9 -14.9°
Maximum altitude 18:23:50 56° 73° (ENE) 717 2.5 -15.6°
Drops below altitude 10° 18:27:54 10° 355° (N) 1,913 5.1 -16.4°
Sets 18:30:03 0° 351° (N) 2,797 6.0 -16.8°
